Flag for Australia Weather past 2 weeks in Port Hedland, Western Australia, Australia

Now
82 °F

Clear.


Feels Like: 82 °F
Forecast: 69 / 91 °F
Wind: 15 mph from West

Location: Port Hedland Pardoo

Current Time: Oct 1, 2014 at 9:15:22 PM

Latest Report: Oct 1, 2014 at 8:30 PM


Visibility: N/A

Pressure: 29.83 "Hg

Humidity: 40%

Dew point: 55 °F

Location of Port HedlandLocation

Historic Weather in Port Hedland — Graph

°F

Port Hedland temperature yesterday

Maximum temperature yesterday: 100 °F (at 12:00 PM)
Minimum temperature yesterday: 66 °F (at 4:00 AM)
Average temperature yesterday: 82 °F

Past Weeks' High & Low Weather Summary

 TemperatureHumidityPressure
High104 °F (Oct 1, 12:00 PM)100% (Sep 17, 11:00 PM)30.12 "Hg (Sep 17, 11:00 PM)
Low59 °F (Sep 24, 6:00 AM)5% (Sep 23, 4:00 PM)29.77 "Hg (Oct 1, 2:30 PM)
Average78 °F46%29.94 "Hg
* Reported Sep 16 8:00 PM — Oct 1 8:00 PM, Port Hedland, Weather by CustomWeather, © 2014

Note: Actual official high and low records may vary slightly from our data, if they occured in-between our weather recording intervals... More about our weather records

Advertising

Port Hedland weather history for previous 24 hours

 ConditionsComfort  
Time TempWeatherWind HumidityBarometerVisibility
8:00 PM
Oct 1
82 °FClear.14 mph37%29.83 "HgN/A
7:30 PM84 °FClear.14 mph35%29.83 "HgN/A
7:00 PM84 °FClear.15 mph35%29.83 "HgN/A
6:30 PM86 °FClear.16 mph29%29.80 "HgN/A
6:00 PM88 °FClear.18 mph27%29.80 "HgN/A
5:30 PM91 °FClear.20 mph24%29.80 "HgN/A
5:00 PM93 °FClear.22 mph21%29.80 "HgN/A
4:30 PM93 °FSunny.21 mph26%29.77 "HgN/A
4:00 PM97 °FSunny.20 mph22%29.77 "HgN/A
3:30 PM95 °FSunny.23 mph25%29.77 "HgN/A
3:00 PM97 °FSunny.21 mph22%29.77 "Hg10 mi
2:30 PM100 °FSunny.23 mph16%29.77 "Hg10 mi
2:00 PM102 °FSunny.20 mph17%29.80 "Hg10 mi
1:30 PM100 °FSunny.24 mph14%29.80 "Hg10 mi
1:00 PM99 °FSunny.21 mph17%29.80 "HgN/A
12:30 PM100 °FSunny.20 mph16%29.83 "Hg10 mi
12:00 PM104 °FSunny.7 mph7%29.86 "Hg10 mi
11:30 AM102 °FSunny.7 mph7%29.86 "Hg10 mi
11:00 AM100 °FSunny.12 mph7%29.89 "Hg10 mi
10:30 AM100 °FSunny.12 mph7%29.89 "Hg10 mi
10:00 AM99 °FSunny.10 mph10%29.92 "Hg10 mi
9:30 AM97 °FSunny.9 mph10%29.92 "Hg10 mi
9:00 AM93 °FSunny.13 mph11%29.92 "Hg10 mi
8:30 AM90 °FSunny.8 mph15%29.95 "Hg10 mi
8:00 AM84 °FSunny.9 mph19%29.92 "Hg10 mi
7:30 AM81 °FSunny.8 mph24%29.92 "Hg10 mi
7:00 AM75 °FSunny.7 mph31%29.89 "Hg10 mi
6:30 AM70 °FSunny.7 mph40%29.89 "Hg10 mi
6:00 AM66 °FSunny.8 mph46%29.89 "Hg10 mi
5:30 AM66 °FSunny.7 mph46%29.89 "HgN/A
5:00 AM68 °FSunny.8 mph43%29.86 "HgN/A
4:30 AM66 °FClear.7 mph49%29.86 "HgN/A
4:00 AM68 °FClear.6 mph49%29.86 "HgN/A
3:30 AM68 °FClear.7 mph49%29.86 "HgN/A
3:00 AM68 °FClear.8 mph49%29.86 "HgN/A
2:30 AM72 °FClear.9 mph41%29.86 "HgN/A
2:00 AM73 °FClear.12 mph38%29.86 "HgN/A
1:30 AM72 °FClear.10 mph53%29.86 "HgN/A
1:00 AM73 °FClear.9 mph53%29.86 "HgN/A
12:30 AM73 °FClear.12 mph61%29.86 "HgN/A
12:00 AM73 °FClear.12 mph61%29.89 "HgN/A
11:30 PM
Sep 30
70 °FClear.8 mph69%29.89 "HgN/A
11:00 PM72 °FClear.8 mph61%29.89 "HgN/A
10:30 PM72 °FClear.8 mph61%29.89 "HgN/A
10:00 PM73 °FClear.7 mph57%29.89 "HgN/A
9:30 PM75 °FClear.9 mph54%29.89 "HgN/A
9:00 PM77 °FClear.10 mph51%29.89 "HgN/A
Weather by CustomWeather, © 2014

See weather overviewHow to use our weather pages